Regional Weather Roundup
Issued by NWS Mobile, AL

Home | Current Version | Previous Version | Text Only | Print | Product List | Glossary On
Versions: 1 2 3 4 5 6 7 8 9 10 11 12 13 14 15 16 17 18 19 20 21 22 23 24 25 26 27 28 29 30 31 32 33 34 35 36 37 38 39 40 41 42 43 44 45 46 47 48
000
ASUS44 KMOB 281110
RWRMOB
REGIONAL WEATHER ROUNDUP
NATIONAL WEATHER SERVICE MOBILE AL
500 AM CST WED JAN 28 2015

NOTE: "FAIR" INDICATES FEW OR NO CLOUDS BELOW 12,000 FEET WITH NO
      SIGNIFICANT WEATHER AND/OR OBSTRUCTIONS TO VISIBILITY.

  * THESE STATIONS ARE PART OF THE UNIVERSITY OF SOUTH ALABAMA
    MESONET AND ARE NOT UNDER NWS OR FAA QUALITY CONTROL.

ALZ061>064-281200-
COASTAL ALABAMA

CITY           SKY/WX    TMP DP  RH WIND       PRES   REMARKS
MOBILE REG APT CLEAR     42  34  73 N6        30.22R
BROOKLEY FIELD CLEAR     41  34  76 N7        30.23R
USA CAMPUS*    NOT AVBL
DOG RIVER*     NOT AVBL


CITY           SKY/WX    TMP DP  RH WIND       PRES   REMARKS
MOUNT VERNON*  NOT AVBL
SARALAND*      NOT AVBL
BAY MINETTE*   NOT AVBL
LOXLEY*        NOT AVBL
ROBERTSDALE*   NOT AVBL
FAIRHOPE*        N/A     39  36  87 N2        30.21R
ELBERTA*         N/A     37  36  93 VRB3      30.19R
FOLEY*         NOT AVBL
GRAND BAY*     NOT AVBL
DAUPHIN ISLND* NOT AVBL
BON SCOUR NWR* NOT AVBL
GULF SHORES    CLEAR     37  35  94 CALM      30.21R

$$

ALZ051>060-281200-
INTERIOR SOUTHWEST AND SOUTH CENTRAL ALABAMA

CITY           SKY/WX    TMP DP  RH WIND       PRES   REMARKS
GREENVILLE     CLEAR     34  29  82 N3        30.21R
EVERGREEN      CLEAR     32  30  92 N5        30.23R WCI  27
CASTLEBERRY*   NOT AVBL
ATMORE*          N/A     39  34  81 N7        30.23R
DIXIE*           N/A     37  34  87 CALM      30.18R
ANDALUSIA/OPP  CLEAR     41  31  67 NE3       30.20R
ANDALUSIA*       N/A     37  32  81 N7        30.18R
FLORALA APT    CLEAR     37  32  82 N5        30.22R
FLORALA*         N/A     39  34  81 CALM      30.17R

$$

FLZ001>006-281200-
WESTERN FLORIDA PANHANDLE

CITY           SKY/WX    TMP DP  RH WIND       PRES   REMARKS
PENSACOLA      CLEAR     44  33  65 N7        30.20R
NAS PENSACOLA  CLEAR     37  35  92 N3        30.20R
MILTON         CLEAR     41  32  70 N3        30.20R
WHTNG S FIELD  CLEAR     43  33  68 N7        30.20R


CITY           SKY/WX    TMP DP  RH WIND       PRES   REMARKS
WALNUT HILL*   NOT AVBL
JAY*           NOT AVBL
CRESTVIEW      CLEAR     34  29  82 N3        30.21R
VALPARAISO     CLEAR     40  33  78 N6        30.19R
DESTIN         CLEAR     46  37  71 N6        30.19R

$$

MSZ076-079-281200-
INTERIOR SOUTHEAST MISSISSIPPI

CITY           SKY/WX    TMP DP  RH WIND       PRES   REMARKS
LEAKESVILLE*   NOT AVBL
AGRICOLA*      NOT AVBL

$$

MARINE OBSERVATIONS

STATION/POSITION TIME  TEMP    WIND        PRES    WAVE
                       AIR SEA DIR/SP/G            HT/PER
                 (UTC) (F)     (DEG/KT/KT) (MB)    (FT/S)
PASCAGOULA       1100           20/  4/  6 1022.9R
PETIT BOIS ISLND 1100           30/ 11/ 12 1023.1R
GRAND BAY        1000   44     360/  4     1023.0S
KATRINA CUT      1000   51      30/  9     1023.0S
CEDAR POINT      1000   46      10/  5     1022.7S
E DAUPHIN ISLAND 1100   51      20/ 13/ 15 1022.9R
MIDDLE BAY LIGHT 1000   50      20/ 12     1022.4R
USCG MOBILE BAY  1100          340/  5/  6 1022.2R
STATE DOCKS      1100                      1022.9R
MEAHER PARK      1000   43     350/  3     1023.4R
WEEKS BAY        1000   38                   N/A
FORT MORGAN      1100           50/ 13/ 14 1022.4R
12 S ORANGE BCH  1100   54 62   40/ 14/ 16 1022.0R   2/ 3
PENSACOLA BAY    1100           20/  4/  7 1022.9R
64 S DAUPHIN ISL 0957   60 66   40/ 16/ 17 1022.4R   3/ 4

$$

SELECTED LOCATIONS ACROSS THE REGION

CITY           SKY/WX    TMP DP  RH WIND       PRES   REMARKS
NEW ORLEANS    CLEAR     50  40  68 NE7       30.20R
GULFPORT       CLEAR     40  36  86 NE3       30.21R
PASCAGOULA AP  CLEAR     37  36  96 CALM      30.22R
PASCAGOULA*    NOT AVBL
HATTIESBURG    CLEAR     35  33  92 CALM      30.24R
LAUREL         CLEAR     39  30  70 NE5       30.23R
MERIDIAN       CLEAR     36  32  85 NE3       30.24R
JACKSON        CLEAR     42  34  73 E6        30.22R
MONTGOMERY     CLEAR     35  28  75 NW5       30.24R WCI  31
TROY           CLEAR     31  27  85 CALM      30.21R
KINSTON*       NOT AVBL
GENEVA*        NOT AVBL
ASHFORD*         N/A     37  32  81 N7        30.18R
DOTHAN         CLEAR     35  30  82 NW5       30.22R WCI  31
PANAMA CITY    CLEAR     39  34  82 N6        30.17R

$$




USA.gov is the U.S. government's official web portal to all federal, state and local government web resources and services.